Wetterdaten: Freitag, 29.04.2016
Datum Zeit Auen-Temp. Temp gefhlt Luftfeuchte Luftdruck Regen Wind Richtung Richtung Sonnenschein Taupunkt Windben
29.04.2016 00:00 -0,4 C -1,1 C 76 % 1015,9 hPa 0,0 mm 0,0 km/h (0 Bft) O-SO 112 0 min -4,1 C 0,0 km/h (0 Bft)
29.04.2016 00:05 -0,6 C -1,2 C 76 % 1015,9 hPa 0,0 mm 0,0 km/h (0 Bft) N-NO 22 0 min -4,3 C 0,0 km/h (0 Bft)
29.04.2016 00:10 -0,8 C -1,4 C 76 % 1015,9 hPa 0,0 mm 0,0 km/h (0 Bft) O-NO 67 0 min -4,5 C 0,0 km/h (0 Bft)
29.04.2016 00:15 -0,9 C -1,4 C 77 % 1015,8 hPa 0,0 mm 0,0 km/h (0 Bft) O-SO 112 0 min -4,4 C 0,0 km/h (0 Bft)
29.04.2016 00:20 -1,0 C -1,5 C 77 % 1015,8 hPa 0,0 mm 0,0 km/h (0 Bft) N-NO 22 0 min -4,5 C 0,0 km/h (0 Bft)
29.04.2016 00:25 -1,1 C -1,6 C 77 % 1015,8 hPa 0,0 mm 0,0 km/h (0 Bft) NO 45 0 min -4,6 C 0,0 km/h (0 Bft)
29.04.2016 00:30 -0,9 C -1,5 C 77 % 1015,8 hPa 0,0 mm 0,0 km/h (0 Bft) SO 135 0 min -4,4 C 0,0 km/h (0 Bft)
29.04.2016 00:35 -0,5 C -1,2 C 79 % 1015,8 hPa 0,0 mm 0,0 km/h (0 Bft) NO 45 0 min -3,7 C 0,0 km/h (0 Bft)
29.04.2016 00:40 -0,5 C -1,2 C 79 % 1015,8 hPa 0,0 mm 0,0 km/h (0 Bft) O-SO 112 0 min -3,7 C 0,0 km/h (0 Bft)
29.04.2016 00:45 -0,4 C -1,1 C 80 % 1015,8 hPa 0,0 mm 0,0 km/h (0 Bft) O-SO 112 0 min -3,4 C 0,0 km/h (0 Bft)
29.04.2016 00:50 -0,9 C -1,5 C 80 % 1015,8 hPa 0,0 mm 0,0 km/h (0 Bft) N-NO 22 0 min -3,9 C 0,0 km/h (0 Bft)
29.04.2016 00:55 -1,0 C -1,6 C 79 % 1015,8 hPa 0,0 mm 0,0 km/h (0 Bft) O 90 0 min -4,2 C 0,0 km/h (0 Bft)
29.04.2016 01:00 -1,3 C -1,8 C 79 % 1015,8 hPa 0,0 mm 0,0 km/h (0 Bft) S 180 0 min -4,5 C 0,0 km/h (0 Bft)
29.04.2016 01:05 -1,4 C -2,0 C 79 % 1015,8 hPa 0,0 mm 0,0 km/h (0 Bft) O-SO 112 0 min -4,6 C 0,0 km/h (0 Bft)
29.04.2016 01:10 -1,2 C -1,8 C 79 % 1015,8 hPa 0,0 mm 0,0 km/h (0 Bft) O-NO 67 0 min -4,4 C 0,0 km/h (0 Bft)
29.04.2016 01:15 -1,6 C -2,2 C 79 % 1015,8 hPa 0,0 mm 0,0 km/h (0 Bft) N-NO 22 0 min -4,8 C 0,0 km/h (0 Bft)
29.04.2016 01:20 -1,8 C -2,3 C 79 % 1015,8 hPa 0,0 mm 0,0 km/h (0 Bft) N-NO 22 0 min -4,9 C 0,0 km/h (0 Bft)
29.04.2016 01:25 -1,9 C -2,4 C 79 % 1015,8 hPa 0,0 mm 0,0 km/h (0 Bft) O-NO 67 0 min -5,0 C 0,0 km/h (0 Bft)
29.04.2016 01:30 -1,9 C -2,4 C 79 % 1015,8 hPa 0,0 mm 0,0 km/h (0 Bft) NO 45 0 min -5,0 C 0,0 km/h (0 Bft)
29.04.2016 01:35 -1,7 C -2,3 C 79 % 1015,8 hPa 0,0 mm 0,0 km/h (0 Bft) O-NO 67 0 min -4,8 C 0,0 km/h (0 Bft)
29.04.2016 01:40 -1,8 C -2,4 C 79 % 1015,8 hPa 0,0 mm 0,0 km/h (0 Bft) N-NO 22 0 min -4,9 C 0,0 km/h (0 Bft)
29.04.2016 01:45 -1,8 C -2,3 C 79 % 1015,8 hPa 0,0 mm 0,0 km/h (0 Bft) N-NW 337 0 min -4,9 C 0,0 km/h (0 Bft)
29.04.2016 01:50 -1,8 C -2,3 C 79 % 1015,8 hPa 0,0 mm 0,0 km/h (0 Bft) N-NO 22 0 min -4,9 C 0,0 km/h (0 Bft)
29.04.2016 01:55 -1,6 C -2,1 C 79 % 1015,6 hPa 0,0 mm 0,0 km/h (0 Bft) S-SO 157 0 min -4,8 C 0,0 km/h (0 Bft)
29.04.2016 02:00 -1,6 C -2,1 C 79 % 1015,6 hPa 0,0 mm 0,0 km/h (0 Bft) SO 135 0 min -4,8 C 0,0 km/h (0 Bft)
29.04.2016 02:05 -1,6 C -2,1 C 79 % 1015,6 hPa 0,0 mm 0,0 km/h (0 Bft) W-NW 292 0 min -4,8 C 0,0 km/h (0 Bft)
29.04.2016 02:10 -1,4 C -1,9 C 80 % 1015,6 hPa 0,0 mm 0,0 km/h (0 Bft) O 90 0 min -4,4 C 0,0 km/h (0 Bft)
29.04.2016 02:15 -1,4 C -1,8 C 80 % 1015,4 hPa 0,0 mm 0,0 km/h (0 Bft) W-NW 292 0 min -4,4 C 0,0 km/h (0 Bft)
29.04.2016 02:17 -1,3 C -1,7 C 80 % 1015,4 hPa 0,0 mm 0,0 km/h (0 Bft) W 270 0 min -4,3 C 0,0 km/h (0 Bft)
29.04.2016 02:18 -1,3 C -1,7 C 80 % 1015,4 hPa 0,0 mm 0,0 km/h (0 Bft) W 270 0 min -4,3 C 0,0 km/h (0 Bft)
29.04.2016 02:20 -1,3 C -1,7 C 80 % 1015,4 hPa 0,0 mm 0,0 km/h (0 Bft) W 270 0 min -4,3 C 0,0 km/h (0 Bft)
29.04.2016 02:25 -1,3 C -1,7 C 80 % 1015,4 hPa 0,0 mm 0,0 km/h (0 Bft) NW 315 0 min -4,3 C 0,0 km/h (0 Bft)
29.04.2016 02:30 -1,3 C -1,7 C 80 % 1015,4 hPa 0,0 mm 0,0 km/h (0 Bft) W 270 0 min -4,3 C 0,0 km/h (0 Bft)
29.04.2016 02:35 -1,2 C -1,6 C 80 % 1015,4 hPa 0,0 mm 0,0 km/h (0 Bft) W-SW 247 0 min -4,2 C 0,0 km/h (0 Bft)
29.04.2016 02:40 -1,0 C -1,4 C 81 % 1015,4 hPa 0,0 mm 0,0 km/h (0 Bft) O-SO 112 0 min -3,8 C 0,0 km/h (0 Bft)
29.04.2016 02:45 -1,1 C -1,5 C 81 % 1015,4 hPa 0,0 mm 0,0 km/h (0 Bft) NW 315 0 min -3,9 C 0,0 km/h (0 Bft)
29.04.2016 02:50 -1,2 C -1,5 C 81 % 1015,4 hPa 0,0 mm 0,0 km/h (0 Bft) NW 315 0 min -4,0 C 0,0 km/h (0 Bft)
29.04.2016 02:55 -0,9 C -1,4 C 81 % 1015,5 hPa 0,0 mm 0,0 km/h (0 Bft) O-NO 67 0 min -3,7 C 0,0 km/h (0 Bft)
29.04.2016 03:00 -0,9 C -1,4 C 81 % 1015,5 hPa 0,0 mm 0,0 km/h (0 Bft) O-NO 67 0 min -3,7 C 0,0 km/h (0 Bft)
29.04.2016 03:05 -1,1 C -1,5 C 81 % 1015,5 hPa 0,0 mm 0,0 km/h (0 Bft) O-SO 112 0 min -3,9 C 0,0 km/h (0 Bft)
29.04.2016 03:10 -0,8 C -1,3 C 81 % 1015,5 hPa 0,0 mm 0,0 km/h (0 Bft) S-SO 157 0 min -3,6 C 0,0 km/h (0 Bft)
29.04.2016 03:15 -0,5 C -1,2 C 82 % 1015,4 hPa 0,0 mm 0,0 km/h (0 Bft) O-SO 112 0 min -3,2 C 0,0 km/h (0 Bft)
29.04.2016 03:20 -0,5 C -1,2 C 82 % 1015,4 hPa 0,0 mm 0,0 km/h (0 Bft) O-SO 112 0 min -3,2 C 0,0 km/h (0 Bft)
29.04.2016 03:25 -0,8 C -1,4 C 82 % 1015,4 hPa 0,0 mm 0,0 km/h (0 Bft) O-SO 112 0 min -3,5 C 0,0 km/h (0 Bft)
29.04.2016 03:30 -0,8 C -1,4 C 82 % 1015,4 hPa 0,0 mm 0,0 km/h (0 Bft) O-SO 112 0 min -3,5 C 0,0 km/h (0 Bft)
29.04.2016 03:35 -0,6 C -1,2 C 82 % 1015,4 hPa 0,0 mm 0,0 km/h (0 Bft) O-SO 112 0 min -3,3 C 0,0 km/h (0 Bft)
29.04.2016 03:40 -1,0 C -1,5 C 82 % 1015,4 hPa 0,0 mm 0,0 km/h (0 Bft) NO 45 0 min -3,7 C 0,0 km/h (0 Bft)
29.04.2016 03:45 -1,3 C -1,8 C 81 % 1015,4 hPa 0,0 mm 0,0 km/h (0 Bft) O-NO 67 0 min -4,1 C 0,0 km/h (0 Bft)
29.04.2016 03:50 -1,3 C -1,8 C 81 % 1015,4 hPa 0,0 mm 0,0 km/h (0 Bft) O-SO 112 0 min -4,1 C 0,0 km/h (0 Bft)
29.04.2016 03:55 -1,3 C -1,8 C 81 % 1015,4 hPa 0,0 mm 0,0 km/h (0 Bft) O-NO 67 0 min -4,1 C 0,0 km/h (0 Bft)
29.04.2016 04:00 -1,4 C -1,9 C 81 % 1015,4 hPa 0,0 mm 0,0 km/h (0 Bft) NO 45 0 min -4,2 C 0,0 km/h (0 Bft)
29.04.2016 04:05 -1,6 C -2,1 C 81 % 1015,4 hPa 0,0 mm 0,0 km/h (0 Bft) O-NO 67 0 min -4,4 C 0,0 km/h (0 Bft)
29.04.2016 04:10 -1,4 C -2,0 C 81 % 1015,4 hPa 0,0 mm 0,0 km/h (0 Bft) O 90 0 min -4,2 C 0,0 km/h (0 Bft)
29.04.2016 04:15 -1,5 C -2,1 C 81 % 1015,4 hPa 0,0 mm 0,0 km/h (0 Bft) O 90 0 min -4,3 C 0,0 km/h (0 Bft)
29.04.2016 04:20 -1,4 C -2,0 C 82 % 1015,4 hPa 0,0 mm 0,0 km/h (0 Bft) NO 45 0 min -4,1 C 0,0 km/h (0 Bft)
29.04.2016 04:25 -1,5 C -2,1 C 82 % 1015,4 hPa 0,0 mm 0,0 km/h (0 Bft) O-NO 67 0 min -4,2 C 0,0 km/h (0 Bft)
29.04.2016 04:30 -1,6 C -2,2 C 81 % 1015,4 hPa 0,0 mm 0,0 km/h (0 Bft) O-NO 67 0 min -4,4 C 0,0 km/h (0 Bft)
29.04.2016 04:35 -1,6 C -2,2 C 81 % 1015,5 hPa 0,0 mm 0,0 km/h (0 Bft) O-NO 67 0 min -4,4 C 0,0 km/h (0 Bft)
29.04.2016 04:40 -1,8 C -2,2 C 81 % 1015,5 hPa 0,0 mm 0,0 km/h (0 Bft) NW 315 0 min -4,6 C 0,0 km/h (0 Bft)
29.04.2016 04:45 -1,9 C -2,3 C 81 % 1015,5 hPa 0,0 mm 0,0 km/h (0 Bft) O-NO 67 0 min -4,7 C 0,0 km/h (0 Bft)
29.04.2016 04:50 -1,7 C -2,2 C 82 % 1015,5 hPa 0,0 mm 0,0 km/h (0 Bft) O-SO 112 0 min -4,4 C 0,0 km/h (0 Bft)
29.04.2016 04:55 -1,8 C -2,3 C 82 % 1015,5 hPa 0,0 mm 0,0 km/h (0 Bft) O-NO 67 0 min -4,5 C 0,0 km/h (0 Bft)
29.04.2016 05:00 -1,6 C -2,1 C 82 % 1015,5 hPa 0,0 mm 0,0 km/h (0 Bft) O 90 0 min -4,3 C 0,0 km/h (0 Bft)
29.04.2016 05:05 -1,6 C -2,1 C 82 % 1015,5 hPa 0,0 mm 0,0 km/h (0 Bft) W-SW 247 0 min -4,3 C 0,0 km/h (0 Bft)
29.04.2016 05:10 -1,8 C -2,3 C 82 % 1015,5 hPa 0,0 mm 0,0 km/h (0 Bft) N 360 0 min -4,5 C 0,0 km/h (0 Bft)
29.04.2016 05:15 -1,6 C -2,2 C 83 % 1015,1 hPa 0,0 mm 0,0 km/h (0 Bft) O-NO 67 0 min -4,1 C 0,0 km/h (0 Bft)
29.04.2016 05:17 -1,6 C -2,2 C 83 % 1015,1 hPa 0,0 mm 0,0 km/h (0 Bft) O-SO 112 0 min -4,1 C 0,0 km/h (0 Bft)
29.04.2016 05:19 -1,6 C -2,2 C 83 % 1015,1 hPa 0,0 mm 0,0 km/h (0 Bft) O-SO 112 0 min -4,1 C 0,0 km/h (0 Bft)
29.04.2016 05:20 -1,6 C -2,2 C 83 % 1015,1 hPa 0,0 mm 0,0 km/h (0 Bft) O-SO 112 0 min -4,1 C 0,0 km/h (0 Bft)
29.04.2016 05:25 -1,6 C -2,2 C 83 % 1015,1 hPa 0,0 mm 0,0 km/h (0 Bft) O 90 0 min -4,1 C 0,0 km/h (0 Bft)
29.04.2016 05:30 -1,5 C -2,2 C 83 % 1015,1 hPa 0,0 mm 0,0 km/h (0 Bft) S-SO 157 0 min -4,0 C 0,0 km/h (0 Bft)
29.04.2016 05:35 -1,3 C -2,0 C 84 % 1015,3 hPa 0,0 mm 0,0 km/h (0 Bft) SO 135 0 min -3,6 C 0,0 km/h (0 Bft)
29.04.2016 05:40 -1,4 C -2,0 C 84 % 1015,3 hPa 0,0 mm 0,0 km/h (0 Bft) SO 135 0 min -3,7 C 0,0 km/h (0 Bft)
29.04.2016 05:45 -1,6 C -2,1 C 84 % 1015,3 hPa 0,0 mm 0,0 km/h (0 Bft) NO 45 0 min -3,9 C 0,0 km/h (0 Bft)
29.04.2016 05:50 -1,7 C -2,1 C 83 % 1015,3 hPa 0,0 mm 0,0 km/h (0 Bft) O-NO 67 0 min -4,2 C 0,0 km/h (0 Bft)
29.04.2016 05:55 -2,0 C -2,4 C 83 % 1015,4 hPa 0,0 mm 0,0 km/h (0 Bft) NO 45 0 min -4,5 C 0,0 km/h (0 Bft)
29.04.2016 06:00 -1,5 C -2,1 C 84 % 1015,4 hPa 0,0 mm 0,0 km/h (0 Bft) SO 135 0 min -3,8 C 0,0 km/h (0 Bft)
29.04.2016 06:05 -1,2 C -1,9 C 84 % 1015,4 hPa 0,0 mm 0,0 km/h (0 Bft) SO 135 0 min -3,5 C 0,0 km/h (0 Bft)
29.04.2016 06:10 -1,3 C -1,9 C 85 % 1015,4 hPa 0,0 mm 0,0 km/h (0 Bft) NO 45 0 min -3,5 C 0,0 km/h (0 Bft)
29.04.2016 06:15 -1,3 C -1,9 C 84 % 1015,4 hPa 0,0 mm 0,0 km/h (0 Bft) O-SO 112 0 min -3,6 C 0,0 km/h (0 Bft)
29.04.2016 06:20 -1,5 C -2,0 C 84 % 1015,4 hPa 0,0 mm 0,0 km/h (0 Bft) NO 45 0 min -3,8 C 0,0 km/h (0 Bft)
29.04.2016 06:25 -1,3 C -1,9 C 84 % 1015,4 hPa 0,0 mm 0,0 km/h (0 Bft) SO 135 0 min -3,6 C 0,0 km/h (0 Bft)
29.04.2016 06:30 -1,2 C -1,7 C 84 % 1015,4 hPa 0,0 mm 0,0 km/h (0 Bft) O-NO 67 0 min -3,5 C 0,0 km/h (0 Bft)
29.04.2016 06:35 -1,0 C -1,3 C 85 % 1015,7 hPa 0,0 mm 0,0 km/h (0 Bft) O-SO 112 0 min -3,2 C 0,0 km/h (0 Bft)
29.04.2016 06:40 -0,9 C -1,0 C 84 % 1015,7 hPa 0,0 mm 0,0 km/h (0 Bft) O-NO 67 0 min -3,3 C 0,0 km/h (0 Bft)
29.04.2016 06:45 -1,1 C -0,2 C 84 % 1015,7 hPa 0,0 mm 0,0 km/h (0 Bft) NO 45 0 min -3,4 C 0,0 km/h (0 Bft)
29.04.2016 06:50 -1,1 C 1,1 C 84 % 1015,7 hPa 0,0 mm 0,0 km/h (0 Bft) O-SO 112 5 min -3,4 C 0,0 km/h (0 Bft)
29.04.2016 06:55 -0,9 C 3,1 C 84 % 1015,7 hPa 0,0 mm 0,0 km/h (0 Bft) NO 45 5 min -3,3 C 0,0 km/h (0 Bft)
29.04.2016 07:00 -0,9 C 4,7 C 84 % 1015,7 hPa 0,0 mm 0,0 km/h (0 Bft) O-NO 67 5 min -3,3 C 0,0 km/h (0 Bft)
29.04.2016 07:05 -0,9 C 5,3 C 84 % 1015,7 hPa 0,0 mm 0,0 km/h (0 Bft) S-SO 157 5 min -3,3 C 0,0 km/h (0 Bft)
29.04.2016 07:10 -0,6 C 3,9 C 84 % 1015,7 hPa 0,0 mm 0,0 km/h (0 Bft) O 90 5 min -3,0 C 0,0 km/h (0 Bft)
29.04.2016 07:15 -0,5 C 2,1 C 84 % 1016,1 hPa 0,0 mm 0,0 km/h (0 Bft) O-NO 67 5 min -2,9 C 0,0 km/h (0 Bft)
29.04.2016 07:20 -0,4 C 1,4 C 84 % 1016,1 hPa 0,0 mm 0,0 km/h (0 Bft) O-NO 67 0 min -2,8 C 0,0 km/h (0 Bft)
29.04.2016 07:25 0,0 C 3,8 C 84 % 1016,1 hPa 0,0 mm 0,0 km/h (0 Bft) O-NO 67 5 min -2,4 C 0,0 km/h (0 Bft)
29.04.2016 07:30 0,2 C 6,2 C 79 % 1016,1 hPa 0,0 mm 0,0 km/h (0 Bft) O-NO 67 5 min -3,0 C 0,0 km/h (0 Bft)
29.04.2016 07:35 1,1 C 8,7 C 79 % 1016,1 hPa 0,0 mm 0,0 km/h (0 Bft) NO 45 5 min -2,1 C 0,0 km/h (0 Bft)
29.04.2016 07:40 1,7 C 9,8 C 79 % 1016,1 hPa 0,0 mm 0,0 km/h (0 Bft) O-NO 67 5 min -1,5 C 0,0 km/h (0 Bft)
29.04.2016 07:45 2,7 C 10,9 C 82 % 1016,1 hPa 0,0 mm 0,0 km/h (0 Bft) O-SO 112 5 min -0,1 C 0,0 km/h (0 Bft)
29.04.2016 07:50 3,1 C 11,8 C 77 % 1016,1 hPa 0,0 mm 0,0 km/h (0 Bft) O-NO 67 5 min -0,5 C 0,0 km/h (0 Bft)
29.04.2016 07:55 3,9 C 12,9 C 79 % 1016,4 hPa 0,0 mm 0,0 km/h (0 Bft) O-NO 67 5 min 0,6 C 0,0 km/h (0 Bft)
29.04.2016 08:00 4,1 C 13,2 C 77 % 1016,4 hPa 0,0 mm 0,0 km/h (0 Bft) O 90 5 min 0,4 C 0,0 km/h (0 Bft)
29.04.2016 08:05 4,8 C 14,2 C 76 % 1016,4 hPa 0,0 mm 0,0 km/h (0 Bft) N-NO 22 5 min 0,9 C 0,0 km/h (0 Bft)
29.04.2016 08:10 5,4 C 14,7 C 75 % 1016,4 hPa 0,0 mm 0,0 km/h (0 Bft) SO 135 5 min 1,3 C 0,0 km/h (0 Bft)
29.04.2016 08:15 5,2 C 15,6 C 70 % 1016,2 hPa 0,0 mm 0,0 km/h (0 Bft) O 90 5 min 0,2 C 0,0 km/h (0 Bft)
29.04.2016 08:17 5,2 C 15,5 C 69 % 1016,2 hPa 0,0 mm 0,0 km/h (0 Bft) O-SO 112 2 min -0,0 C 0,0 km/h (0 Bft)
29.04.2016 08:20 5,2 C 15,5 C 69 % 1016,2 hPa 0,0 mm 0,0 km/h (0 Bft) O-SO 112 3 min -0,0 C 0,0 km/h (0 Bft)
29.04.2016 08:25 5,9 C 16,1 C 68 % 1016,2 hPa 0,0 mm 0,0 km/h (0 Bft) O-NO 67 5 min 0,5 C 0,0 km/h (0 Bft)
29.04.2016 08:30 6,5 C 16,4 C 68 % 1016,2 hPa 0,0 mm 0,0 km/h (0 Bft) O 90 5 min 1,0 C 0,0 km/h (0 Bft)
29.04.2016 08:35 6,9 C 15,9 C 65 % 1016,3 hPa 0,0 mm 0,0 km/h (0 Bft) NO 45 5 min 0,8 C 0,0 km/h (0 Bft)
29.04.2016 08:40 7,2 C 15,9 C 63 % 1016,3 hPa 0,0 mm 0,6 km/h (0 Bft) S-SO 157 5 min 0,6 C 0,0 km/h (0 Bft)
29.04.2016 08:45 8,0 C 16,8 C 63 % 1016,3 hPa 0,0 mm 0,6 km/h (0 Bft) O 90 5 min 1,4 C 0,0 km/h (0 Bft)
29.04.2016 08:50 8,6 C 17,1 C 61 % 1016,3 hPa 0,0 mm 0,0 km/h (0 Bft) O-NO 67 5 min 1,5 C 0,0 km/h (0 Bft)
29.04.2016 08:55 8,9 C 17,1 C 59 % 1016,8 hPa 0,0 mm 0,6 km/h (0 Bft) NO 45 5 min 1,3 C 6,6 km/h (2 Bft)
29.04.2016 09:00 8,8 C 16,8 C 59 % 1016,8 hPa 0,0 mm 1,5 km/h (1 Bft) N-NO 22 5 min 1,2 C 5,7 km/h (1 Bft)
29.04.2016 09:05 7,9 C 15,8 C 57 % 1016,8 hPa 0,0 mm 3,6 km/h (1 Bft) SO 135 5 min -0,1 C 4,2 km/h (1 Bft)
29.04.2016 09:10 8,1 C 15,5 C 57 % 1016,8 hPa 0,0 mm 4,2 km/h (1 Bft) O 90 5 min 0,1 C 5,4 km/h (1 Bft)
29.04.2016 09:15 8,3 C 15,0 C 57 % 1017,3 hPa 0,0 mm 3,9 km/h (1 Bft) NO 45 5 min 0,3 C 9,8 km/h (2 Bft)
29.04.2016 09:20 8,7 C 15,3 C 57 % 1017,3 hPa 0,0 mm 4,2 km/h (1 Bft) NO 45 5 min 0,7 C 3,9 km/h (1 Bft)
29.04.2016 09:25 8,9 C 15,8 C 57 % 1017,3 hPa 0,0 mm 3,6 km/h (1 Bft) NW 315 5 min 0,9 C 0,0 km/h (0 Bft)
29.04.2016 09:30 9,2 C 16,5 C 56 % 1017,3 hPa 0,0 mm 2,7 km/h (1 Bft) NO 45 5 min 0,9 C 6,0 km/h (2 Bft)
29.04.2016 09:35 9,2 C 16,4 C 55 % 1017,7 hPa 0,0 mm 3,3 km/h (1 Bft) N-NO 22 5 min 0,6 C 5,1 km/h (1 Bft)
29.04.2016 09:40 9,2 C 16,5 C 56 % 1017,7 hPa 0,0 mm 3,9 km/h (1 Bft) NO 45 5 min 0,9 C 3,9 km/h (1 Bft)
29.04.2016 09:45 9,6 C 17,1 C 55 % 1017,7 hPa 0,0 mm 2,7 km/h (1 Bft) N-NO 22 5 min 1,0 C 0,0 km/h (0 Bft)
29.04.2016 09:50 9,9 C 17,7 C 55 % 1017,7 hPa 0,0 mm 1,5 km/h (1 Bft) N 360 5 min 1,3 C 4,5 km/h (1 Bft)
29.04.2016 09:55 9,5 C 16,6 C 53 % 1018,2 hPa 0,0 mm 4,2 km/h (1 Bft) O-NO 67 5 min 0,4 C 11,6 km/h (2 Bft)
29.04.2016 10:00 9,4 C 16,1 C 53 % 1018,2 hPa 0,0 mm 5,4 km/h (1 Bft) S 180 5 min 0,3 C 0,0 km/h (0 Bft)
29.04.2016 10:05 10,0 C 16,7 C 51 % 1018,2 hPa 0,0 mm 3,3 km/h (1 Bft) O-NO 67 5 min 0,3 C 3,6 km/h (1 Bft)
29.04.2016 10:10 10,0 C 16,8 C 52 % 1018,2 hPa 0,0 mm 2,7 km/h (1 Bft) O 90 5 min 0,6 C 7,7 km/h (2 Bft)
29.04.2016 10:15 10,0 C 16,6 C 50 % 1018,4 hPa 0,0 mm 4,2 km/h (1 Bft) NO 45 5 min 0,1 C 7,7 km/h (2 Bft)
29.04.2016 10:20 9,9 C 16,5 C 51 % 1018,4 hPa 0,0 mm 5,7 km/h (1 Bft) N-NW 337 5 min 0,2 C 8,9 km/h (2 Bft)
29.04.2016 10:25 9,9 C 17,1 C 50 % 1018,4 hPa 0,0 mm 3,6 km/h (1 Bft) NO 45 5 min -0,0 C 8,3 km/h (2 Bft)
29.04.2016 10:30 9,8 C 16,5 C 50 % 1018,4 hPa 0,0 mm 4,5 km/h (1 Bft) NW 315 5 min -0,1 C 6,6 km/h (2 Bft)
29.04.2016 10:35 10,1 C 16,8 C 51 % 1018,8 hPa 0,0 mm 4,8 km/h (1 Bft) S-SO 157 5 min 0,4 C 0,0 km/h (0 Bft)
29.04.2016 10:40 10,3 C 17,4 C 50 % 1018,8 hPa 0,0 mm 3,0 km/h (1 Bft) S-SO 157 5 min 0,3 C 0,0 km/h (0 Bft)
29.04.2016 10:45 10,5 C 17,6 C 49 % 1018,8 hPa 0,0 mm 2,4 km/h (1 Bft) SO 135 5 min 0,2 C 0,0 km/h (0 Bft)
29.04.2016 10:50 10,8 C 18,1 C 50 % 1018,8 hPa 0,0 mm 3,0 km/h (1 Bft) N-NW 337 5 min 0,8 C 12,2 km/h (2 Bft)
29.04.2016 10:55 11,3 C 17,7 C 49 % 1018,8 hPa 0,0 mm 4,2 km/h (1 Bft) N-NW 337 5 min 1,0 C 12,8 km/h (3 Bft)
29.04.2016 11:00 11,4 C 17,8 C 49 % 1018,8 hPa 0,0 mm 5,4 km/h (1 Bft) N 360 5 min 1,1 C 7,7 km/h (2 Bft)
29.04.2016 11:05 11,7 C 18,1 C 49 % 1018,8 hPa 0,0 mm 3,6 km/h (1 Bft) NO 45 5 min 1,3 C 6,0 km/h (2 Bft)
29.04.2016 11:10 11,8 C 18,4 C 48 % 1018,8 hPa 0,0 mm 2,7 km/h (1 Bft) NO 45 5 min 1,2 C 9,2 km/h (2 Bft)
29.04.2016 11:15 11,4 C 17,5 C 48 % 1019,2 hPa 0,0 mm 5,4 km/h (1 Bft) NO 45 5 min 0,8 C 14,0 km/h (3 Bft)
29.04.2016 11:17 11,3 C 17,2 C 47 % 1019,2 hPa 0,0 mm 6,9 km/h (2 Bft) N 360 2 min 0,4 C 7,2 km/h (2 Bft)
29.04.2016 11:21 11,3 C 17,2 C 47 % 1019,2 hPa 0,0 mm 6,9 km/h (2 Bft) N 360 4 min 0,4 C 7,2 km/h (2 Bft)
29.04.2016 11:25 11,4 C 17,4 C 47 % 1019,2 hPa 0,0 mm 5,1 km/h (1 Bft) O-NO 67 4 min 0,5 C 5,4 km/h (1 Bft)
29.04.2016 11:30 11,6 C 17,9 C 48 % 1019,2 hPa 0,0 mm 4,5 km/h (1 Bft) O 90 5 min 1,0 C 4,5 km/h (1 Bft)
29.04.2016 11:35 11,3 C 17,1 C 48 % 1019,3 hPa 0,0 mm 6,0 km/h (2 Bft) NO 45 5 min 0,7 C 17,9 km/h (3 Bft)
29.04.2016 11:40 11,8 C 17,5 C 49 % 1019,3 hPa 0,0 mm 7,7 km/h (2 Bft) N-NW 337 5 min 1,4 C 8,6 km/h (2 Bft)
29.04.2016 11:45 12,0 C 17,9 C 48 % 1019,3 hPa 0,0 mm 5,4 km/h (1 Bft) N-NW 337 5 min 1,3 C 9,2 km/h (2 Bft)
29.04.2016 11:50 11,9 C 17,9 C 47 % 1019,3 hPa 0,0 mm 6,6 km/h (2 Bft) N-NO 22 5 min 1,0 C 15,2 km/h (3 Bft)
29.04.2016 11:55 11,5 C 16,5 C 48 % 1019,3 hPa 0,0 mm 8,6 km/h (2 Bft) W 270 5 min 0,9 C 18,2 km/h (3 Bft)
29.04.2016 12:00 12,1 C 16,5 C 48 % 1019,3 hPa 0,0 mm 7,7 km/h (2 Bft) N-NW 337 0 min 1,4 C 14,3 km/h (3 Bft)
29.04.2016 12:05 11,9 C 16,1 C 48 % 1019,3 hPa 0,0 mm 8,0 km/h (2 Bft) W-NW 292 5 min 1,2 C 15,8 km/h (3 Bft)
29.04.2016 12:10 12,0 C 16,0 C 48 % 1019,3 hPa 0,0 mm 9,8 km/h (2 Bft) W 270 0 min 1,3 C 10,7 km/h (2 Bft)
29.04.2016 12:15 12,1 C 16,2 C 47 % 1019,1 hPa 0,0 mm 9,2 km/h (2 Bft) O-NO 67 5 min 1,1 C 12,8 km/h (3 Bft)
29.04.2016 12:20 12,2 C 16,2 C 47 % 1019,1 hPa 0,0 mm 9,2 km/h (2 Bft) NO 45 5 min 1,2 C 13,7 km/h (3 Bft)
29.04.2016 12:25 12,1 C 16,6 C 47 % 1019,1 hPa 0,0 mm 9,5 km/h (2 Bft) NO 45 0 min 1,1 C 14,9 km/h (3 Bft)
29.04.2016 12:30 12,4 C 17,0 C 47 % 1019,1 hPa 0,0 mm 7,7 km/h (2 Bft) N-NW 337 5 min 1,4 C 0,0 km/h (0 Bft)
29.04.2016 12:35 12,6 C 17,7 C 46 % 1018,9 hPa 0,0 mm 6,3 km/h (2 Bft) NO 45 5 min 1,3 C 8,3 km/h (2 Bft)
29.04.2016 12:40 12,6 C 18,1 C 46 % 1018,9 hPa 0,0 mm 5,7 km/h (1 Bft) W 270 5 min 1,3 C 9,2 km/h (2 Bft)
29.04.2016 12:45 12,9 C 17,9 C 47 % 1018,9 hPa 0,0 mm 6,3 km/h (2 Bft) W 270 5 min 1,9 C 6,0 km/h (2 Bft)
29.04.2016 12:50 13,4 C 17,6 C 46 % 1018,9 hPa 0,0 mm 6,0 km/h (2 Bft) SO 135 0 min 2,0 C 0,0 km/h (0 Bft)
29.04.2016 12:55 13,7 C 16,5 C 45 % 1018,8 hPa 0,0 mm 6,9 km/h (2 Bft) NW 315 0 min 2,0 C 22,7 km/h (4 Bft)
29.04.2016 13:00 13,5 C 15,6 C 44 % 1018,8 hPa 0,0 mm 10,4 km/h (2 Bft) NW 315 0 min 1,5 C 15,5 km/h (3 Bft)
29.04.2016 13:05 13,5 C 15,9 C 44 % 1018,8 hPa 0,0 mm 8,3 km/h (2 Bft) SO 135 0 min 1,5 C 5,4 km/h (1 Bft)
29.04.2016 13:10 13,3 C 16,4 C 44 % 1018,8 hPa 0,0 mm 5,4 km/h (1 Bft) NW 315 0 min 1,3 C 10,7 km/h (2 Bft)
29.04.2016 13:15 13,6 C 16,7 C 45 % 1018,4 hPa 0,0 mm 6,0 km/h (2 Bft) NW 315 0 min 1,9 C 9,2 km/h (2 Bft)
29.04.2016 13:20 13,7 C 17,4 C 45 % 1018,4 hPa 0,0 mm 8,0 km/h (2 Bft) O-NO 67 0 min 2,0 C 11,0 km/h (2 Bft)
29.04.2016 13:25 12,8 C 17,1 C 43 % 1018,4 hPa 0,0 mm 9,8 km/h (2 Bft) W-NW 292 5 min 0,5 C 8,0 km/h (2 Bft)
29.04.2016 13:30 12,1 C 15,1 C 44 % 1018,4 hPa 0,0 mm 9,8 km/h (2 Bft) NO 45 5 min 0,2 C 6,9 km/h (2 Bft)
29.04.2016 13:35 11,7 C 13,2 C 45 % 1018,2 hPa 0,0 mm 6,3 km/h (2 Bft) NW 315 0 min 0,2 C 4,8 km/h (1 Bft)
29.04.2016 13:40 12,1 C 13,7 C 45 % 1018,2 hPa 0,0 mm 5,4 km/h (1 Bft) NO 45 0 min 0,5 C 11,9 km/h (2 Bft)
29.04.2016 13:45 12,4 C 15,0 C 44 % 1018,2 hPa 0,0 mm 6,3 km/h (2 Bft) NW 315 0 min 0,5 C 8,3 km/h (2 Bft)
29.04.2016 13:50 12,9 C 16,6 C 44 % 1018,2 hPa 0,0 mm 5,1 km/h (1 Bft) O-SO 112 0 min 1,0 C 0,0 km/h (0 Bft)
29.04.2016 13:55 13,5 C 18,4 C 43 % 1017,8 hPa 0,0 mm 4,8 km/h (1 Bft) O-SO 112 5 min 1,2 C 21,5 km/h (4 Bft)
29.04.2016 14:00 13,6 C 18,6 C 43 % 1017,8 hPa 0,0 mm 5,4 km/h (1 Bft) SO 135 5 min 1,3 C 9,8 km/h (2 Bft)
29.04.2016 14:05 14,0 C 18,0 C 44 % 1017,8 hPa 0,0 mm 8,6 km/h (2 Bft) SO 135 5 min 1,9 C 7,2 km/h (2 Bft)
29.04.2016 14:10 13,5 C 17,4 C 43 % 1017,8 hPa 0,0 mm 8,3 km/h (2 Bft) N-NO 22 5 min 1,2 C 8,6 km/h (2 Bft)
29.04.2016 14:15 12,6 C 15,1 C 44 % 1017,5 hPa 0,0 mm 4,8 km/h (1 Bft) N 360 5 min 0,7 C 3,3 km/h (1 Bft)
29.04.2016 14:20 12,2 C 14,0 C 43 % 1017,5 hPa 0,0 mm 5,4 km/h (1 Bft) NO 45 0 min -0,0 C 6,9 km/h (2 Bft)
29.04.2016 14:22 12,2 C 14,0 C 43 % 1017,5 hPa 0,0 mm 5,4 km/h (1 Bft) NO 45 0 min -0,0 C 6,9 km/h (2 Bft)
29.04.2016 14:25 11,7 C 12,7 C 45 % 1017,5 hPa 0,0 mm 7,2 km/h (2 Bft) O-NO 67 0 min 0,2 C 5,7 km/h (1 Bft)
29.04.2016 14:30 11,6 C 12,4 C 46 % 1017,5 hPa 0,0 mm 5,7 km/h (1 Bft) O 90 0 min 0,4 C 0,0 km/h (0 Bft)
29.04.2016 14:35 12,8 C 15,0 C 45 % 1017,2 hPa 0,0 mm 2,4 km/h (1 Bft) N-NO 22 0 min 1,2 C 12,8 km/h (3 Bft)
29.04.2016 14:40 13,4 C 16,2 C 43 % 1017,2 hPa 0,0 mm 5,4 km/h (1 Bft) N-NW 337 0 min 1,1 C 8,0 km/h (2 Bft)
29.04.2016 14:45 13,9 C 17,6 C 43 % 1017,2 hPa 0,0 mm 8,9 km/h (2 Bft) N-NW 337 0 min 1,5 C 18,8 km/h (3 Bft)
29.04.2016 14:50 14,3 C 18,2 C 42 % 1017,2 hPa 0,0 mm 7,5 km/h (2 Bft) S-SO 157 0 min 1,6 C 7,7 km/h (2 Bft)
29.04.2016 14:55 14,6 C 18,6 C 41 % 1016,9 hPa 0,0 mm 7,7 km/h (2 Bft) N-NO 22 5 min 1,5 C 7,5 km/h (2 Bft)
29.04.2016 15:00 14,5 C 19,3 C 42 % 1016,9 hPa 0,0 mm 6,3 km/h (2 Bft) NW 315 5 min 1,7 C 6,6 km/h (2 Bft)
29.04.2016 15:05 14,5 C 19,2 C 40 % 1016,9 hPa 0,0 mm 8,3 km/h (2 Bft) N-NO 22 5 min 1,1 C 13,1 km/h (3 Bft)
29.04.2016 15:10 14,4 C 19,0 C 41 % 1016,9 hPa 0,0 mm 9,5 km/h (2 Bft) W 270 5 min 1,3 C 3,0 km/h (1 Bft)
29.04.2016 15:15 14,4 C 19,2 C 39 % 1016,8 hPa 0,0 mm 8,0 km/h (2 Bft) N-NO 22 5 min 0,6 C 10,7 km/h (2 Bft)
29.04.2016 15:20 14,3 C 19,3 C 40 % 1016,8 hPa 0,0 mm 6,9 km/h (2 Bft) O-NO 67 5 min 0,9 C 6,0 km/h (2 Bft)
29.04.2016 15:25 14,2 C 19,8 C 40 % 1016,8 hPa 0,0 mm 6,0 km/h (2 Bft) S 180 5 min 0,8 C 7,5 km/h (2 Bft)
29.04.2016 15:30 14,2 C 19,8 C 40 % 1016,8 hPa 0,0 mm 6,3 km/h (2 Bft) O-NO 67 5 min 0,8 C 15,8 km/h (3 Bft)
29.04.2016 15:35 14,7 C 19,4 C 40 % 1016,5 hPa 0,0 mm 9,2 km/h (2 Bft) N-NW 337 5 min 1,2 C 18,5 km/h (3 Bft)
29.04.2016 15:40 14,8 C 19,2 C 40 % 1016,5 hPa 0,0 mm 9,5 km/h (2 Bft) W-NW 292 5 min 1,3 C 4,5 km/h (1 Bft)
29.04.2016 15:45 15,1 C 19,6 C 39 % 1016,5 hPa 0,0 mm 8,0 km/h (2 Bft) N-NW 337 5 min 1,3 C 8,3 km/h (2 Bft)
29.04.2016 15:50 15,0 C 19,6 C 39 % 1016,5 hPa 0,0 mm 7,5 km/h (2 Bft) O-NO 67 5 min 1,2 C 6,0 km/h (2 Bft)
29.04.2016 15:55 15,0 C 19,3 C 39 % 1016,4 hPa 0,0 mm 7,5 km/h (2 Bft) N-NO 22 0 min 1,2 C 10,1 km/h (2 Bft)
29.04.2016 16:00 15,0 C 19,7 C 38 % 1016,4 hPa 0,0 mm 7,7 km/h (2 Bft) O-NO 67 5 min 0,8 C 13,7 km/h (3 Bft)
29.04.2016 16:05 14,7 C 19,5 C 38 % 1016,4 hPa 0,0 mm 8,3 km/h (2 Bft) N-NO 22 5 min 0,5 C 11,3 km/h (2 Bft)
29.04.2016 16:10 14,5 C 19,5 C 38 % 1016,4 hPa 0,0 mm 8,3 km/h (2 Bft) NO 45 5 min 0,4 C 17,0 km/h (3 Bft)
29.04.2016 16:15 14,4 C 19,2 C 38 % 1016,2 hPa 0,0 mm 8,9 km/h (2 Bft) N 360 5 min 0,3 C 0,0 km/h (0 Bft)
29.04.2016 16:20 14,4 C 19,6 C 39 % 1016,2 hPa 0,0 mm 8,3 km/h (2 Bft) O-NO 67 5 min 0,6 C 7,5 km/h (2 Bft)
29.04.2016 16:25 14,1 C 19,6 C 39 % 1016,2 hPa 0,0 mm 5,4 km/h (1 Bft) NW 315 5 min 0,4 C 11,9 km/h (2 Bft)
29.04.2016 16:30 14,0 C 18,6 C 39 % 1016,2 hPa 0,0 mm 5,1 km/h (1 Bft) N-NO 22 5 min 0,3 C 7,5 km/h (2 Bft)
29.04.2016 16:35 14,4 C 19,2 C 39 % 1016,2 hPa 0,0 mm 7,5 km/h (2 Bft) NW 315 5 min 0,6 C 11,0 km/h (2 Bft)
29.04.2016 16:40 14,5 C 19,3 C 39 % 1016,2 hPa 0,0 mm 8,6 km/h (2 Bft) W 270 5 min 0,7 C 4,2 km/h (1 Bft)
29.04.2016 16:45 14,2 C 19,4 C 39 % 1016,2 hPa 0,0 mm 6,3 km/h (2 Bft) NO 45 5 min 0,5 C 5,1 km/h (1 Bft)
29.04.2016 16:50 14,2 C 18,9 C 39 % 1016,2 hPa 0,0 mm 4,5 km/h (1 Bft) NW 315 5 min 0,5 C 6,0 km/h (2 Bft)
29.04.2016 16:55 14,2 C 18,2 C 39 % 1016,1 hPa 0,0 mm 6,3 km/h (2 Bft) O-NO 67 5 min 0,5 C 7,5 km/h (2 Bft)
29.04.2016 17:00 14,3 C 17,6 C 39 % 1016,1 hPa 0,0 mm 8,6 km/h (2 Bft) NO 45 5 min 0,5 C 5,7 km/h (1 Bft)
29.04.2016 17:05 14,3 C 16,8 C 39 % 1016,1 hPa 0,0 mm 11,0 km/h (2 Bft) NW 315 0 min 0,5 C 24,1 km/h (4 Bft)
29.04.2016 17:10 14,2 C 16,3 C 39 % 1016,1 hPa 0,0 mm 10,4 km/h (2 Bft) N-NW 337 0 min 0,5 C 8,6 km/h (2 Bft)
29.04.2016 17:15 14,0 C 15,6 C 38 % 1015,9 hPa 0,0 mm 11,0 km/h (2 Bft) N 360 0 min -0,1 C 11,6 km/h (2 Bft)
29.04.2016 17:20 13,9 C 15,7 C 39 % 1015,9 hPa 0,0 mm 9,8 km/h (2 Bft) N-NW 337 0 min 0,2 C 0,0 km/h (0 Bft)
29.04.2016 17:23 13,9 C 15,9 C 39 % 1015,9 hPa 0,0 mm 7,5 km/h (2 Bft) NW 315 0 min 0,2 C 16,1 km/h (3 Bft)
29.04.2016 17:25 13,9 C 15,9 C 39 % 1015,9 hPa 0,0 mm 7,5 km/h (2 Bft) NW 315 0 min 0,2 C 16,1 km/h (3 Bft)
29.04.2016 17:30 13,9 C 15,5 C 39 % 1015,9 hPa 0,0 mm 9,2 km/h (2 Bft) N 360 0 min 0,2 C 14,9 km/h (3 Bft)
29.04.2016 17:35 13,9 C 15,0 C 39 % 1015,8 hPa 0,0 mm 10,7 km/h (2 Bft) NW 315 0 min 0,2 C 11,6 km/h (2 Bft)
29.04.2016 17:40 13,8 C 14,7 C 39 % 1015,8 hPa 0,0 mm 10,7 km/h (2 Bft) O-NO 67 0 min 0,1 C 16,1 km/h (3 Bft)
29.04.2016 17:45 13,7 C 14,6 C 38 % 1015,8 hPa 0,0 mm 10,1 km/h (2 Bft) NO 45 0 min -0,4 C 0,0 km/h (0 Bft)
29.04.2016 17:50 13,6 C 14,7 C 39 % 1015,8 hPa 0,0 mm 8,0 km/h (2 Bft) NO 45 0 min -0,1 C 4,8 km/h (1 Bft)
29.04.2016 17:55 13,5 C 14,7 C 39 % 1015,7 hPa 0,0 mm 6,0 km/h (2 Bft) NO 45 0 min -0,2 C 13,1 km/h (3 Bft)
29.04.2016 18:00 13,5 C 15,0 C 39 % 1015,7 hPa 0,0 mm 8,0 km/h (2 Bft) NO 45 0 min -0,2 C 8,9 km/h (2 Bft)
29.04.2016 18:05 13,5 C 15,1 C 39 % 1015,7 hPa 0,0 mm 8,0 km/h (2 Bft) NO 45 0 min -0,2 C 17,3 km/h (3 Bft)
29.04.2016 18:10 13,4 C 14,8 C 39 % 1015,7 hPa 0,0 mm 8,9 km/h (2 Bft) NO 45 0 min -0,3 C 16,1 km/h (3 Bft)
29.04.2016 18:15 13,3 C 14,7 C 38 % 1015,7 hPa 0,0 mm 11,3 km/h (2 Bft) N-NO 22 0 min -0,7 C 4,8 km/h (1 Bft)
29.04.2016 18:20 13,3 C 15,1 C 39 % 1015,7 hPa 0,0 mm 8,0 km/h (2 Bft) N-NO 22 0 min -0,4 C 8,6 km/h (2 Bft)
29.04.2016 18:25 13,2 C 15,6 C 39 % 1015,7 hPa 0,0 mm 3,6 km/h (1 Bft) NO 45 5 min -0,4 C 0,0 km/h (0 Bft)
29.04.2016 18:30 13,2 C 15,5 C 37 % 1015,7 hPa 0,0 mm 4,5 km/h (1 Bft) S 180 5 min -1,2 C 0,0 km/h (0 Bft)
29.04.2016 18:35 13,2 C 15,6 C 38 % 1015,7 hPa 0,0 mm 3,9 km/h (1 Bft) N-NO 22 5 min -0,8 C 11,6 km/h (2 Bft)
29.04.2016 18:40 13,2 C 15,4 C 38 % 1015,7 hPa 0,0 mm 4,8 km/h (1 Bft) O-NO 67 5 min -0,8 C 8,0 km/h (2 Bft)
29.04.2016 18:45 13,4 C 15,4 C 38 % 1015,7 hPa 0,0 mm 7,5 km/h (2 Bft) NW 315 0 min -0,6 C 16,7 km/h (3 Bft)
29.04.2016 18:50 13,3 C 15,0 C 38 % 1015,7 hPa 0,0 mm 8,3 km/h (2 Bft) O-NO 67 0 min -0,7 C 15,8 km/h (3 Bft)
29.04.2016 18:55 13,2 C 14,5 C 38 % 1015,6 hPa 0,0 mm 10,1 km/h (2 Bft) O-NO 67 0 min -0,8 C 14,0 km/h (3 Bft)
29.04.2016 19:00 13,1 C 14,4 C 38 % 1015,6 hPa 0,0 mm 10,4 km/h (2 Bft) NO 45 0 min -0,9 C 12,5 km/h (3 Bft)
29.04.2016 19:05 13,0 C 14,6 C 38 % 1015,6 hPa 0,0 mm 9,5 km/h (2 Bft) O-NO 67 0 min -1,0 C 10,1 km/h (2 Bft)
29.04.2016 19:10 13,0 C 15,0 C 38 % 1015,6 hPa 0,0 mm 9,2 km/h (2 Bft) NO 45 0 min -1,0 C 18,5 km/h (3 Bft)
29.04.2016 19:15 12,8 C 15,1 C 38 % 1015,6 hPa 0,0 mm 9,8 km/h (2 Bft) NO 45 5 min -1,2 C 11,9 km/h (2 Bft)
29.04.2016 19:20 12,8 C 15,1 C 38 % 1015,6 hPa 0,0 mm 9,8 km/h (2 Bft) NO 45 5 min -1,2 C 9,5 km/h (2 Bft)
29.04.2016 19:25 12,8 C 15,4 C 39 % 1015,6 hPa 0,0 mm 6,9 km/h (2 Bft) N-NO 22 5 min -0,8 C 7,2 km/h (2 Bft)
29.04.2016 19:30 12,6 C 15,6 C 40 % 1015,6 hPa 0,0 mm 5,4 km/h (1 Bft) NO 45 5 min -0,6 C 6,9 km/h (2 Bft)
29.04.2016 19:35 12,3 C 15,5 C 41 % 1015,6 hPa 0,0 mm 6,0 km/h (2 Bft) O 90 5 min -0,6 C 9,8 km/h (2 Bft)
29.04.2016 19:40 12,1 C 15,3 C 42 % 1015,6 hPa 0,0 mm 4,8 km/h (1 Bft) NO 45 5 min -0,4 C 7,2 km/h (2 Bft)
29.04.2016 19:45 11,8 C 14,8 C 42 % 1015,6 hPa 0,0 mm 4,5 km/h (1 Bft) NO 45 5 min -0,7 C 3,6 km/h (1 Bft)
29.04.2016 19:50 11,4 C 14,4 C 43 % 1015,6 hPa 0,0 mm 3,3 km/h (1 Bft) N-NO 22 5 min -0,7 C 0,0 km/h (0 Bft)
29.04.2016 19:55 11,0 C 14,1 C 43 % 1015,7 hPa 0,0 mm 0,6 km/h (0 Bft) O-SO 112 5 min -1,1 C 0,0 km/h (0 Bft)
29.04.2016 20:00 10,7 C 13,6 C 44 % 1015,7 hPa 0,0 mm 0,3 km/h (0 Bft) O 90 5 min -1,0 C 0,0 km/h (0 Bft)
29.04.2016 20:05 10,4 C 12,5 C 44 % 1015,7 hPa 0,0 mm 0,0 km/h (0 Bft) S-SO 157 0 min -1,3 C 0,0 km/h (0 Bft)
29.04.2016 20:10 10,4 C 11,7 C 45 % 1015,7 hPa 0,0 mm 0,0 km/h (0 Bft) O-SO 112 0 min -1,0 C 0,0 km/h (0 Bft)
29.04.2016 20:15 10,1 C 10,6 C 46 % 1015,7 hPa 0,0 mm 0,0 km/h (0 Bft) SO 135 0 min -1,0 C 0,0 km/h (0 Bft)
29.04.2016 20:20 9,9 C 10,0 C 47 % 1015,7 hPa 0,0 mm 0,3 km/h (0 Bft) SO 135 0 min -0,9 C 0,0 km/h (0 Bft)
29.04.2016 20:22 9,6 C 9,5 C 47 % 1015,7 hPa 0,0 mm 0,6 km/h (0 Bft) SO 135 0 min -1,1 C 3,3 km/h (1 Bft)
29.04.2016 20:24 9,6 C 9,5 C 47 % 1015,7 hPa 0,0 mm 0,6 km/h (0 Bft) SO 135 0 min -1,1 C 3,3 km/h (1 Bft)
29.04.2016 20:25 9,6 C 9,5 C 47 % 1015,7 hPa 0,0 mm 0,6 km/h (0 Bft) SO 135 0 min -1,1 C 3,3 km/h (1 Bft)
29.04.2016 20:30 9,4 C 9,2 C 48 % 1015,7 hPa 0,0 mm 0,9 km/h (0 Bft) O-SO 112 0 min -1,0 C 3,6 km/h (1 Bft)
29.04.2016 20:35 9,0 C 8,8 C 48 % 1015,8 hPa 0,0 mm 2,1 km/h (1 Bft) SO 135 0 min -1,4 C 0,0 km/h (0 Bft)
29.04.2016 20:40 8,5 C 8,4 C 49 % 1015,8 hPa 0,0 mm 2,1 km/h (1 Bft) SO 135 0 min -1,6 C 3,3 km/h (1 Bft)
29.04.2016 20:45 7,7 C 7,8 C 50 % 1015,8 hPa 0,0 mm 0,6 km/h (0 Bft) O 90 0 min -2,1 C 0,0 km/h (0 Bft)
29.04.2016 20:50 7,5 C 7,7 C 51 % 1015,8 hPa 0,0 mm 0,3 km/h (0 Bft) SO 135 0 min -2,0 C 0,0 km/h (0 Bft)
29.04.2016 20:55 7,3 C 7,5 C 53 % 1015,9 hPa 0,0 mm 0,6 km/h (0 Bft) S-SO 157 0 min -1,6 C 3,6 km/h (1 Bft)
29.04.2016 21:00 6,9 C 7,1 C 54 % 1015,9 hPa 0,0 mm 2,1 km/h (1 Bft) SO 135 0 min -1,8 C 4,8 km/h (1 Bft)
29.04.2016 21:05 6,9 C 7,2 C 55 % 1015,9 hPa 0,0 mm 4,5 km/h (1 Bft) S-SO 157 0 min -1,5 C 0,0 km/h (0 Bft)
29.04.2016 21:10 6,6 C 6,8 C 56 % 1015,9 hPa 0,0 mm 3,3 km/h (1 Bft) S-SO 157 0 min -1,5 C 0,0 km/h (0 Bft)
29.04.2016 21:15 6,1 C 6,4 C 57 % 1015,9 hPa 0,0 mm 2,4 km/h (1 Bft) S 180 0 min -1,8 C 6,6 km/h (2 Bft)
29.04.2016 21:20 5,7 C 6,1 C 59 % 1015,9 hPa 0,0 mm 3,3 km/h (1 Bft) S-SO 157 0 min -1,7 C 3,3 km/h (1 Bft)
29.04.2016 21:25 5,7 C 5,8 C 59 % 1015,9 hPa 0,0 mm 3,3 km/h (1 Bft) S 180 0 min -1,7 C 3,3 km/h (1 Bft)
29.04.2016 21:30 5,2 C 5,5 C 59 % 1015,9 hPa 0,0 mm 2,7 km/h (1 Bft) S 180 0 min -2,1 C 4,5 km/h (1 Bft)
29.04.2016 21:35 5,5 C 5,5 C 61 % 1016,1 hPa 0,0 mm 1,8 km/h (1 Bft) O-SO 112 0 min -1,4 C 0,0 km/h (0 Bft)
29.04.2016 21:40 5,2 C 5,1 C 60 % 1016,1 hPa 0,0 mm 0,9 km/h (0 Bft) S 180 0 min -1,9 C 3,3 km/h (1 Bft)
29.04.2016 21:45 5,5 C 5,3 C 60 % 1016,1 hPa 0,0 mm 0,9 km/h (0 Bft) N 360 0 min -1,6 C 0,0 km/h (0 Bft)
29.04.2016 21:50 5,2 C 5,0 C 60 % 1016,1 hPa 0,0 mm 1,2 km/h (1 Bft) S-SO 157 0 min -1,9 C 5,4 km/h (1 Bft)
29.04.2016 21:55 4,9 C 4,8 C 63 % 1015,9 hPa 0,0 mm 1,5 km/h (1 Bft) S-SO 157 0 min -1,5 C 3,3 km/h (1 Bft)
29.04.2016 22:00 5,0 C 4,8 C 63 % 1015,9 hPa 0,0 mm 1,8 km/h (1 Bft) S-SO 157 0 min -1,4 C 3,0 km/h (1 Bft)
29.04.2016 22:05 4,9 C 4,6 C 63 % 1015,9 hPa 0,0 mm 2,4 km/h (1 Bft) SO 135 0 min -1,5 C 3,9 km/h (1 Bft)
29.04.2016 22:10 4,9 C 4,5 C 65 % 1015,9 hPa 0,0 mm 2,7 km/h (1 Bft) SO 135 0 min -1,1 C 3,0 km/h (1 Bft)
29.04.2016 22:15 4,6 C 4,3 C 65 % 1016,0 hPa 0,0 mm 1,2 km/h (1 Bft) S-SO 157 0 min -1,4 C 0,0 km/h (0 Bft)
29.04.2016 22:20 4,6 C 4,2 C 65 % 1016,0 hPa 0,0 mm 0,3 km/h (0 Bft) SO 135 0 min -1,4 C 0,0 km/h (0 Bft)
29.04.2016 22:25 4,4 C 4,0 C 66 % 1016,0 hPa 0,0 mm 0,0 km/h (0 Bft) SO 135 0 min -1,4 C 0,0 km/h (0 Bft)
29.04.2016 22:30 4,3 C 3,9 C 66 % 1016,0 hPa 0,0 mm 0,0 km/h (0 Bft) SO 135 0 min -1,5 C 0,0 km/h (0 Bft)
29.04.2016 22:35 4,4 C 3,9 C 65 % 1016,0 hPa 0,0 mm 0,3 km/h (0 Bft) SO 135 0 min -1,6 C 0,0 km/h (0 Bft)
29.04.2016 22:40 4,5 C 4,0 C 64 % 1016,0 hPa 0,0 mm 0,3 km/h (0 Bft) O-SO 112 0 min -1,7 C 0,0 km/h (0 Bft)
29.04.2016 22:45 4,2 C 3,6 C 66 % 1016,0 hPa 0,0 mm 0,0 km/h (0 Bft) O-NO 67 0 min -1,6 C 0,0 km/h (0 Bft)
29.04.2016 22:50 3,7 C 3,2 C 66 % 1016,0 hPa 0,0 mm 0,0 km/h (0 Bft) SO 135 0 min -2,0 C 0,0 km/h (0 Bft)
29.04.2016 22:55 3,6 C 3,0 C 67 % 1015,9 hPa 0,0 mm 0,0 km/h (0 Bft) O 90 0 min -1,9 C 0,0 km/h (0 Bft)
29.04.2016 23:00 3,2 C 2,7 C 67 % 1015,9 hPa 0,0 mm 0,0 km/h (0 Bft) NO 45 0 min -2,3 C 0,0 km/h (0 Bft)
29.04.2016 23:05 2,7 C 2,3 C 67 % 1015,9 hPa 0,0 mm 0,0 km/h (0 Bft) O-NO 67 0 min -2,8 C 0,0 km/h (0 Bft)
29.04.2016 23:10 2,7 C 2,2 C 67 % 1015,9 hPa 0,0 mm 0,0 km/h (0 Bft) NO 45 0 min -2,8 C 0,0 km/h (0 Bft)
29.04.2016 23:15 2,7 C 2,2 C 68 % 1015,8 hPa 0,0 mm 0,0 km/h (0 Bft) N-NO 22 0 min -2,6 C 0,0 km/h (0 Bft)
29.04.2016 23:20 2,5 C 2,0 C 68 % 1015,8 hPa 0,0 mm 0,0 km/h (0 Bft) O-NO 67 0 min -2,8 C 0,0 km/h (0 Bft)
29.04.2016 23:22 2,4 C 1,8 C 68 % 1015,8 hPa 0,0 mm 0,0 km/h (0 Bft) O-NO 67 0 min -2,9 C 0,0 km/h (0 Bft)
29.04.2016 23:25 2,4 C 1,8 C 68 % 1015,8 hPa 0,0 mm 0,0 km/h (0 Bft) O-NO 67 0 min -2,9 C 0,0 km/h (0 Bft)
29.04.2016 23:30 2,1 C 1,6 C 68 % 1015,8 hPa 0,0 mm 0,0 km/h (0 Bft) NO 45 0 min -3,2 C 0,0 km/h (0 Bft)
29.04.2016 23:35 1,9 C 1,4 C 69 % 1015,9 hPa 0,0 mm 0,0 km/h (0 Bft) O-NO 67 0 min -3,2 C 0,0 km/h (0 Bft)
29.04.2016 23:40 1,7 C 1,2 C 69 % 1015,9 hPa 0,0 mm 0,0 km/h (0 Bft) O-NO 67 0 min -3,4 C 0,0 km/h (0 Bft)
29.04.2016 23:45 2,3 C 1,6 C 73 % 1015,9 hPa 0,0 mm 0,3 km/h (0 Bft) SO 135 0 min -2,0 C 0,0 km/h (0 Bft)
29.04.2016 23:50 2,9 C 2,2 C 74 % 1015,9 hPa 0,0 mm 0,3 km/h (0 Bft) S 180 0 min -1,3 C 0,0 km/h (0 Bft)
29.04.2016 23:55 3,0 C 2,3 C 71 % 1015,8 hPa 0,0 mm 0,0 km/h (0 Bft) O-NO 67 0 min -1,7 C 0,0 km/h (0 Bft)
_ Min-Zeit 05:55 05:55 18:30 05:30 - 23:55 - - - 01:30 23:55
Minimum _ -2,0 C -2,4 C 37 % 1015,1 hPa - 0,0 km/h (0 Bft) - - - -5,0 C 0,0 km/h (0 Bft)
_ Max-Zeit 15:45 15:30 06:35 12:10 23:55 18:15 - - 20:00 12:50 17:05
Maximum _ 15,1 C 19,8 C 85 % 1019,3 hPa 0,0 mm 11,3 km/h
N-NO (2 Bft)
- - 5 min 2,0 C 24,1 km/h
NW (4 Bft)
Durchschnitt _ 6,6 C 9,0 C 60 % 1016,4 hPa #0,0 mm 3,2 km/h (1 Bft) NO - #9:30 h -1,3 C 4,2 km/h (1 Bft)